User: anonymous   Login
Location: Elstree
(51.6403°N, 0.2969°W)
Time: 14:51:37
(UTC+00:00)
Language:

Cosmos 1703 Rocket - Orbit

View from above orbital plane
View from above orbital plane
View from above satellite
View from above satellite

Ground track
Ground track

The orbit data is extracted from the following two-line orbital elements,

1 16263U 85108B   21135.71556838  .00000103  00000-0  97286-5 0  9996
2 16263  82.5062 214.0486 0019142 326.6511 148.9642 14.83140146895030
Epoch (UTC): 15 May 2021 17:10:25
Eccentricity: 0.0019142
inclination: 82.5062°
perigee height: 606 km
apogee height: 633 km
right ascension of ascending node: 214.0486°
argument of perigee: 326.6511°
revolutions per day: 14.83140146
mean anomaly at epoch: 148.9642°
orbit number at epoch: 89503

The dashed part of the orbit path shows where the satellite is in the earth's shadow,  

DLR